Weather History for Anchorage Merrill, AK

Change the Weather History Date:

Sunday, January 6, 2013

  Actual Average Record
Temperature  
Mean Temperature 26 °F -  
Max Temperature 30 °F 19 °F 35 °F (2002)
Min Temperature 21 °F 7 °F -18 °F (1997)
Degree Days  
Heating Degree Days 40    
Moisture  
Dew Point 22 °F    
Average Humidity 86    
Maximum Humidity 96    
Minimum Humidity 75    
Precipitation  
Precipitation 0.00 in - - ()
Sea Level Pressure  
Sea Level Pressure 29.23 in    
Wind  
Wind Speed 1 mph (West)    
Max Wind Speed 5 mph    
Max Gust Speed -    
Visibility 10 miles    
Events      
Averages and records for this station are not official NWS values.
T = Trace of Precipitation, MM = Missing Value Source: NWS Daily Summary

Daily Weather History Graph

Daily Weather History Graph

Search for Another Location

Airport:

Trip Planner

Search our weather history database for the weather conditions in past years. The results will help you decide how hot, cold, wet, or windy it might be!

Date:

Astronomy

Jan. 06, 2013 Rise Set
Actual Time 10:08 AM AKST 4:02 PM AKST
Civil Twilight 9:09 AM AKST 5:01 PM AKST
Nautical Twilight 8:11 AM AKST 6:00 PM AKST
Astronomical Twilight 7:18 AM AKST 6:53 PM AKST
Moon 3:53 AM AKST (1/6) 12:12 PM AKST (1/6)
Length of Visible Light 7h 52m
Length of Day
5h 53m
Waning Crescent, 31% of the Moon is Illuminated
Jan 6
Waning Crescent
Jan 11
New
Jan 18
First Quarter
Jan 26
Full
Feb 3
Last Quarter

Hourly Weather History & Observations

Time (AKST) Temp. Windchill Dew Point Humidity Pressure Visibility Wind Dir Wind Speed Gust Speed Precip Events Conditions
12:53 AM 30.0 °F - 26.1 °F 85% 29.36 in 10.0 mi Calm Calm - N/A   Overcast
1:53 AM 27.0 °F 21.6 °F 24.1 °F 89% 29.37 in 10.0 mi NNW 4.6 mph - N/A   Overcast
3:53 AM 27.0 °F - 24.1 °F 89% 29.36 in 10.0 mi Calm Calm - N/A   Overcast
4:53 AM 25.0 °F - 21.9 °F 88% 29.37 in 10.0 mi Calm Calm - N/A   Overcast
5:53 AM 27.0 °F - 23.0 °F 85% 29.35 in 10.0 mi Calm Calm - N/A   Mostly Cloudy
6:53 AM 26.1 °F - 23.0 °F 88% 29.35 in 10.0 mi Calm Calm - N/A   Scattered Clouds
7:53 AM 23.0 °F - 21.0 °F 92% 29.32 in 10.0 mi Calm Calm - N/A   Scattered Clouds
8:53 AM 21.9 °F - 21.0 °F 96% 29.32 in 10.0 mi Calm Calm - N/A   Overcast
9:53 AM 24.1 °F 18.2 °F 21.0 °F 88% 29.30 in 10.0 mi SE 4.6 mph - N/A   Overcast
10:53 AM 24.1 °F - 21.0 °F 88% 29.29 in 10.0 mi Calm Calm - N/A   Mostly Cloudy
11:53 AM 25.0 °F - 21.9 °F 88% 29.28 in 10.0 mi Calm Calm - N/A   Overcast
12:53 PM 26.1 °F 21.9 °F 23.0 °F 88% 29.27 in 10.0 mi ESE 3.5 mph - N/A   Overcast
1:53 PM 27.0 °F - 23.0 °F 85% 29.24 in 10.0 mi Calm Calm - N/A   Overcast
2:53 PM 26.1 °F 20.5 °F 21.9 °F 84% 29.20 in 10.0 mi North 4.6 mph - N/A   Mostly Cloudy
3:53 PM 27.0 °F 23.0 °F 23.0 °F 85% 29.18 in 10.0 mi SSE 3.5 mph - N/A   Overcast
4:53 PM 27.0 °F - 24.1 °F 89% 29.17 in 10.0 mi Calm Calm - N/A   Overcast
5:53 PM 28.9 °F - 21.9 °F 75% 29.12 in 10.0 mi Calm Calm - N/A   Scattered Clouds
6:53 PM 27.0 °F - 21.9 °F 81% 29.10 in 10.0 mi Calm Calm - N/A   Scattered Clouds
7:53 PM 25.0 °F 20.7 °F 21.0 °F 85% 29.07 in 10.0 mi SW 3.5 mph - N/A   Scattered Clouds
8:53 PM 26.1 °F 20.5 °F 21.9 °F 84% 29.04 in 10.0 mi WSW 4.6 mph - N/A   Partly Cloudy
9:53 PM 28.0 °F 22.8 °F 21.0 °F 75% 29.04 in 10.0 mi WNW 4.6 mph - N/A   Overcast
10:53 PM 25.0 °F - 21.0 °F 85% 29.03 in 10.0 mi Calm Calm - N/A   Scattered Clouds
11:53 PM 28.9 °F 25.2 °F 24.1 °F 82% 29.05 in 10.0 mi NW 3.5 mph - N/A   Scattered Clouds